Regional Weather Roundup
Issued by NWS

Home | Current Version | Previous Version | Text Only | Print | Product List | Glossary Off
Versions: 1 2 3 4 5 6 7 8 9 10 11 12 13 14 15 16 17 18 19 20 21 22 23 24 25 26 27 28 29 30 31 32 33 34 35 36 37 38 39 40 41 42 43 44 45 46 47 48 49 50

000
ASUS45 KSLC 281710
RWRUT

UTAH REGIONAL WEATHER ROUNDUP
NATIONAL WEATHER SERVICE SALT LAKE CITY UT
1100 AM MDT MON JUL 28 2014

UTZ001>011-023>025-281800-

NORTHERN UTAH

CITY           SKY/WX    TMP DP  RH WIND       PRES   REMARKS
HILL AFB       PTSUNNY   86  50  28 S13       30.24F
LOGAN          SUNNY     79  50  36 NW7       30.23S
OGDEN          CLOUDY    87  49  26 S12       30.21F
PROVO AIRPORT  MOSUNNY   82  52  34 VRB5      30.26F
SALT LAKE CITY MOSUNNY   88  48  25 S13       30.19F
VERNAL         PTSUNNY   77  48  35 SE6       30.31F
WENDOVER       PTSUNNY   86  48  26 E8        30.19S
HEBER CITY     MOSUNNY   84  45  24 CALM      30.30F
WEST JORDAN    SUNNY     90  57  33 SE14      30.24S

$$

UTZ012>022-026-027-281800-

SOUTHERN UTAH

CITY           SKY/WX    TMP DP  RH WIND       PRES   REMARKS
BRYCE CANYON   MOSUNNY   69  54  58 S14       30.50S
CEDAR CITY     CLOUDY    72  55  55 S7        30.35R
MILFORD        CLOUDY    79  53  40 S14       30.29S
MOAB/CYNLANDS  SUNNY     82  53  36 E8        30.27S
PRICE          PTSUNNY   78  52  40 S12       30.36F
ST GEORGE      MOSUNNY   86  54  32 N6        30.19F
KANAB            N/A     79  54  41 CALM      30.35S

$$

REGIONAL REPORTS     COLORADO/ARIZONA

CITY           SKY/WX    TMP DP  RH WIND       PRES   REMARKS
CRAIG, CO      SUNNY     73  50  44 N8        30.39F
GRAND JUNCTION PTSUNNY   80  54  40 W6        30.31S
RIFLE          MOSUNNY   81  48  31 VRB5      30.35F
MONTROSE       MOSUNNY   80  51  36 N5        30.39F
CORTEZ         CLOUDY    71  56  58 CALM      30.42S
PAGE, AZ       SUNNY     83  54  36 VRB5      30.28R
GRAND CANYON   MOSUNNY   73  52  47 SE8       30.44F
KINGMAN        SUNNY     88  53  30 MISG      30.20F
FLAGSTAFF      MOSUNNY   73  49  42 N5        30.48S

$$

REGIONAL REPORTS    NEVADA/IDAHO/WYOMING

CITY           SKY/WX    TMP DP  RH WIND       PRES   REMARKS
LAS VEGAS, NV  PTSUNNY   87  58  37 VRB5      30.10R
ELY            CLOUDY    75  47  36 S6        30.36S
ELKO           PTSUNNY   84  44  24 CALM      30.24F
POCATELLO, ID  SUNNY     80  40  23 CALM      30.22S
BURLEY         CLOUDY    76  49  38 E6        30.18R
EVANSTON, WY   MOSUNNY   76  39  26 VRB6      30.43F
ROCK SPRINGS   SUNNY     81  44  27 VRB5      30.40F

$$


USA.gov is the U.S. government's official web portal to all federal, state and local government web resources and services.